Simultaneous Nadir Overpasses (SNOs) Predictions

Prediction of SNOs between AQUA and GOES-15 Satellite Orbit:

Table of predicted SNOs for the next 14.0 days since TLE Epoch: 8/14/2021
Index Date Time (AQUA) AQUA Lat,Lon GOES-15 Lat,Lon Distance(km) Time Diff (sec)
1 08/14/2021 10:25:24 0.65,-132.39 -0.22,-128.22 474.85 80
2 08/15/2021 21:51:58 1.05,-124.28 0.21,-128.14 439.99 80
3 08/16/2021 10:13:12 0.05,-129.43 -0.23,-128.24 135.53 80
4 08/18/2021 10:01:01 -0.62,-126.48 -0.23,-128.26 202.97 80
5 08/18/2021 22:22:25 -0.51,-131.67 0.25,-128.18 397.34 80
6 08/20/2021 22:10:14 0.16,-128.72 0.25,-128.19 59.30 80
7 08/22/2021 21:58:02 0.78,-125.76 0.25,-128.21 278.98 80
8 08/23/2021 10:19:17 0.32,-130.91 -0.26,-128.30 297.29 80
9 08/25/2021 10:07:06 -0.36,-127.96 -0.26,-128.32 41.11 80
10 08/27/2021 09:54:54 -0.99,-125.00 -0.26,-128.33 379.11 80
11 08/27/2021 22:16:18 -0.13,-130.19 0.28,-128.25 220.63 80
